DateTimeUTC,F1_A11,F1_S11,BsB_S11,BsG_S11,BsR_S11,BbsB_S11,BbsG_S11,BbsR_S11,BaB_A11,BaG_A11,BaR_A11,Tu_S11,T_S11,Uu_S11,U_S11,P_S11,T1_A11
2021-01-13T14:00:00Z,00000200,20000000,,,,,,,0000.28,-000.02,0000.28,17.4,24.2,01.5,01.0,0645.5,31.0
2021-01-13T14:01:00Z,00000200,20000000,,,,,,,-000.19,0000.10,0000.09,17.4,24.2,01.5,01.0,0645.5,31.0
2021-01-13T14:02:00Z,00000200,20000000,,,,,,,0000.11,0000.23,0000.12,17.4,24.2,01.5,01.0,0645.5,31.0
2021-01-13T14:03:00Z,00000200,60000000,,,,,,,0000.21,0000.00,0000.01,17.4,24.2,01.5,01.0,0645.5,31.0
2021-01-13T14:04:00Z,00000200,41000000,0001.13,0000.37,0000.32,0000.42,-000.00,0000.09,-000.40,0000.03,-000.12,17.6,24.1,01.6,01.1,0646.4,31.0
2021-01-13T14:05:00Z,00000200,01000000,0000.71,0000.17,0000.02,0000.49,0000.13,0000.03,0000.35,0000.22,0000.17,17.7,24.1,01.6,01.1,0646.4,30.9
2021-01-13T14:06:00Z,00000200,01000000,0000.92,0000.10,0000.29,0000.39,0000.03,0000.34,-000.18,-000.40,-000.47,17.7,24.0,01.6,01.1,0646.4,31.0
2021-01-13T14:07:00Z,00000200,01000000,0000.82,-000.01,-000.23,0000.63,0000.24,-000.16,0000.21,0000.11,0000.33,17.7,24.0,01.6,01.1,0646.5,31.0
2021-01-13T14:08:00Z,00000200,01000000,0000.61,0000.20,0000.21,0000.81,0000.14,-000.20,-000.00,0000.12,0000.13,17.7,24.1,01.6,01.1,0646.6,31.0
2021-01-13T14:09:00Z,00000200,01000000,0000.92,0000.09,0000.20,0000.40,0000.13,-000.14,-000.18,0000.46,0000.15,17.7,24.1,01.6,01.1,0646.6,31.0
2021-01-13T14:10:00Z,00000200,01000000,0000.44,-000.12,0000.09,0000.22,0000.14,-000.23,0000.22,-000.01,-000.11,17.7,24.0,01.6,01.1,0646.6,31.0
2021-01-13T14:11:00Z,00000200,01000000,0000.54,-000.08,-000.04,0000.29,-000.18,0000.16,0000.22,-000.02,0000.06,17.7,24.0,01.6,01.1,0646.6,31.0
2021-01-13T14:12:00Z,00000200,01000000,0001.35,-000.08,-000.07,0000.10,0000.15,0000.02,0000.09,-000.27,0000.08,17.7,24.1,01.6,01.1,0646.6,31.0
2021-01-13T14:13:00Z,00000200,01000000,0000.55,0000.26,-000.18,-000.29,-000.03,-000.20,-000.31,0000.10,-000.11,17.7,24.1,01.6,01.1,0646.7,31.0
2021-01-13T14:14:00Z,00000200,01000000,0000.80,-000.32,0000.05,0000.24,0000.01,-000.07,0000.42,0000.15,0000.11,17.8,24.1,01.6,01.1,0646.7,31.0
2021-01-13T14:15:00Z,00000200,01000000,0000.24,0000.20,-000.10,0000.51,0000.11,-000.05,-000.23,0000.19,0000.11,17.8,24.1,01.7,01.1,0646.7,31.0
2021-01-13T14:16:00Z,00000200,01000000,0000.37,0000.28,-000.17,0000.43,0000.01,0000.03,0000.17,-000.13,-000.45,17.8,24.1,01.6,01.1,0646.7,31.0
2021-01-13T14:17:00Z,00000200,01000000,0001.06,0000.49,-000.19,0000.10,-000.04,-000.05,-000.01,-000.04,0000.35,17.8,24.1,01.7,01.1,0646.7,31.0
2021-01-13T14:18:00Z,00000200,01000000,0000.57,0000.01,-000.15,0000.12,-000.11,0000.01,-000.00,0000.06,0000.30,17.8,24.1,01.7,01.2,0646.8,31.0
2021-01-13T14:19:00Z,00000200,01000000,0001.51,0000.09,-000.05,0000.78,-000.13,-000.01,0000.02,-000.02,-000.34,17.8,24.2,01.7,01.1,0646.8,31.0
2021-01-13T14:20:00Z,00000200,01000000,0000.25,0000.17,0000.04,-000.16,0000.07,0000.09,0000.04,0000.12,0000.13,17.8,24.2,01.7,01.1,0646.8,31.0
2021-01-13T14:21:00Z,00000200,01000000,0000.72,-000.03,-000.02,0000.05,-000.13,-000.01,0000.07,-000.21,0000.19,17.9,24.2,01.6,01.1,0646.8,31.0
2021-01-13T14:22:00Z,00000200,01000000,0000.02,0000.07,-000.09,0000.38,-000.05,0000.09,0000.20,0000.30,-000.10,17.9,24.2,01.7,01.1,0646.8,31.0
2021-01-13T14:23:00Z,00000200,01000000,0000.66,0000.10,-000.10,0000.34,0000.08,0000.09,-000.09,-000.26,-000.33,17.9,24.2,01.6,01.1,0646.8,31.0
2021-01-13T14:24:00Z,00000200,01000000,0000.60,-000.01,0000.10,0000.26,0000.23,0000.04,0000.03,0000.19,0000.28,17.9,24.2,01.6,01.1,0646.9,31.0
2021-01-13T14:25:00Z,00000200,01000000,0000.32,0000.06,-000.17,0000.84,0000.01,-000.08,-000.10,0000.12,-000.08,17.9,24.2,01.6,01.1,0646.8,31.0
2021-01-13T14:26:00Z,00000200,01000000,0000.78,0000.10,-000.33,0000.61,0000.23,-000.24,-000.02,0000.09,0000.22,17.9,24.2,01.6,01.1,0646.9,31.0
2021-01-13T14:27:00Z,00000200,01000000,0001.03,-000.18,0000.02,-000.45,0000.16,0000.33,0000.46,0000.01,-000.21,17.9,24.2,01.5,01.0,0646.9,31.0
2021-01-13T14:28:00Z,00000200,01000000,0000.97,0000.00,0000.26,0000.34,-000.07,-000.20,-000.41,0000.23,0000.04,17.9,24.2,01.6,01.1,0647.0,31.0
2021-01-13T14:29:00Z,00000200,01000000,0000.51,0000.11,-000.13,-000.28,0000.05,-000.32,-000.00,-000.24,-000.02,17.9,24.2,01.6,01.1,0646.9,31.0
2021-01-13T14:30:00Z,00000200,01000000,0001.20,-000.13,0000.14,0000.07,0000.10,0000.13,-000.04,0000.18,0000.26,17.9,24.3,01.6,01.1,0646.9,31.0
2021-01-13T14:31:00Z,00000200,01000000,0000.90,-000.06,-000.23,-000.02,-000.10,-000.12,0000.17,-000.28,-000.21,18.0,24.3,01.5,01.0,0647.0,31.0
2021-01-13T14:32:00Z,00000200,01000000,0000.86,-000.17,0000.13,0000.47,0000.01,-000.10,0000.19,0000.52,0000.15,18.0,24.3,01.5,01.0,0647.0,31.0
2021-01-13T14:33:00Z,00000200,01000000,0000.74,-000.22,-000.09,0000.35,0000.02,-000.21,-000.26,-000.35,-000.10,18.0,24.3,01.5,01.0,0647.0,31.0
2021-01-13T14:34:00Z,00000200,01000000,0000.78,0000.32,0000.04,0000.31,0000.11,-000.00,0000.26,0000.25,0000.40,18.0,24.3,01.5,01.0,0647.0,31.0
2021-01-13T14:35:00Z,00000200,01000000,0001.09,0000.16,0000.30,0000.15,0000.11,0000.28,0000.24,0000.08,0000.02,18.0,24.3,01.4,01.0,0647.0,31.0
2021-01-13T14:36:00Z,00000200,01000000,0000.74,0000.11,0000.20,0000.01,-000.16,0000.11,-000.24,0000.08,-000.23,18.0,24.3,01.4,01.0,0647.0,31.0
2021-01-13T14:37:00Z,00000200,01000000,-000.31,0000.14,-000.23,0000.32,-000.04,-000.20,0000.18,0000.02,0000.41,18.0,24.3,01.4,01.0,0647.0,31.0
2021-01-13T14:38:00Z,00000200,01000000,0001.03,-000.08,0000.01,0000.52,-000.20,0000.00,0000.29,0000.09,-000.13,18.0,24.3,01.4,01.0,0647.1,31.0
2021-01-13T14:39:00Z,00000200,01000000,0000.78,-000.34,0000.26,0000.58,-000.08,0000.31,-000.47,-000.25,0000.01,18.0,24.3,01.4,00.9,0647.0,31.0
2021-01-13T14:40:00Z,00000200,01000000,0000.91,0000.08,-000.04,0000.20,0000.17,-000.02,0000.12,-000.10,-000.01,18.0,24.3,01.4,01.0,0647.0,31.0
2021-01-13T14:41:00Z,00000200,01000000,0000.01,0000.09,0000.12,0000.22,-000.01,0000.16,0000.28,0000.12,-000.10,18.0,24.3,01.5,01.0,0647.0,31.0
2021-01-13T14:42:00Z,00000200,01000000,0000.33,-000.13,-000.03,-000.22,0000.07,-000.26,0000.09,0000.03,0000.10,18.0,24.3,01.4,01.0,0647.0,31.0
2021-01-13T14:43:00Z,00000200,01000000,0000.73,-000.03,-000.25,0000.49,0000.04,-000.23,0000.08,0000.18,0000.32,18.0,24.3,01.4,00.9,0647.1,31.0
2021-01-13T14:44:00Z,00000200,01000000,0000.35,0000.03,0000.14,0000.78,-000.07,-000.06,-000.20,0000.10,-000.60,18.0,24.3,01.4,00.9,0647.1,31.0
2021-01-13T14:45:00Z,00000200,01000000,0001.55,0000.16,0000.01,0000.37,0000.00,-000.16,-000.15,-000.41,0000.21,18.0,24.3,01.5,01.0,0647.1,31.0
2021-01-13T14:46:00Z,00000200,01000000,0000.82,-000.23,0000.02,0000.37,0000.13,0000.02,0000.11,0000.23,-000.16,18.0,24.3,01.4,01.0,0647.1,31.0
2021-01-13T14:47:00Z,00000200,01000000,0001.03,0000.12,0000.07,0000.16,-000.01,-000.07,0000.20,0000.14,-000.03,18.0,24.3,01.4,01.0,0647.1,31.0
2021-01-13T14:48:00Z,00000200,01000000,0001.00,0000.26,-000.13,0000.45,-000.25,0000.05,-000.01,-000.33,0000.05,18.0,24.3,01.3,00.9,0647.1,31.0
2021-01-13T14:49:00Z,00000200,01000000,0000.55,-000.16,0000.04,0000.45,-000.15,-000.28,-000.18,0000.14,0000.13,18.0,24.3,01.4,00.9,0647.2,31.0
2021-01-13T14:50:00Z,00000200,01000000,0000.72,0000.10,-000.10,0000.07,-000.04,0000.11,0000.14,0000.51,-000.15,18.0,24.3,01.3,00.9,0647.2,31.0
2021-01-13T14:51:00Z,00000200,01000000,0001.00,-000.10,0000.01,-000.00,0000.22,0000.42,0000.08,-000.43,0000.24,18.0,24.3,01.3,00.9,0647.1,31.0
2021-01-13T14:52:00Z,00000200,01000000,0000.21,0000.19,0000.00,0000.08,-000.06,0000.30,-000.26,-000.08,-000.20,18.0,24.3,01.2,00.8,0647.1,31.0
2021-01-13T14:53:00Z,00000200,01000000,0001.61,0000.21,-000.00,0000.06,-000.09,-000.12,0000.01,0000.01,0000.22,18.0,24.3,01.4,00.9,0647.1,31.0
2021-01-13T14:54:00Z,00000200,01000000,0000.89,-000.04,0000.01,-000.09,0000.04,0000.21,-000.00,0000.19,0000.06,18.0,24.3,01.3,00.8,0647.2,31.0
2021-01-13T14:55:00Z,00000200,01000000,0001.04,-000.26,-000.02,-000.00,0000.24,-000.03,0000.36,0000.01,-000.02,18.0,24.3,01.3,00.9,0647.1,31.0
2021-01-13T14:56:00Z,00000200,01000000,0001.04,-000.12,-000.17,0000.82,-000.17,0000.11,-000.20,-000.10,-000.17,18.0,24.3,01.4,00.9,0647.1,31.0
2021-01-13T14:57:00Z,00000200,41000000,,,,,,,0000.08,-000.02,0000.24,18.0,24.4,01.5,01.0,0647.2,31.0
2021-01-13T14:58:00Z,00000200,61000000,,,,,,,-000.14,0000.34,-000.15,17.7,24.4,01.2,00.8,0646.2,31.0
2021-01-13T14:59:00Z,00000200,21000000,,,,,,,0000.07,-000.07,0000.11,17.7,24.5,01.2,00.8,0646.2,31.0
